FW6321 Weather Reports


time (UTC)temp
F
wind
direction
speed
knots
gust
knots
rain 1hr
in
rain 24hr
in
rain mn
in
humidity
%
barometer
mb
20260509203647 56 0 5.2 10.4 0.00 0.00 0.00 74 1017.6
20260509203149 56 309 5.2 10.4 0.00 0.00 0.00 74 1017.6
20260509202730 56 12 5.2 10.4 0.00 0.00 0.00 74 1017.5
20260509201718 56 8 4.3 8.7 0.00 0.00 0.00 73 1017.6
20260509200648 57 1 3.5 7.0 0.00 0.00 0.00 72 1017.6
20260509200147 57 335 3.5 7.8 0.00 0.00 0.00 72 1017.7
20260509195646 57 6 3.5 7.8 0.00 0.00 0.00 72 1017.7
20260509195146 57 345 4.3 7.8 0.00 0.00 0.00 72 1017.7
20260509194646 58 357 4.3 7.8 0.00 0.00 0.00 72 1017.6
20260509194145 58 343 4.3 9.6 0.00 0.00 0.00 71 1017.5
20260509193646 58 356 4.3 9.6 0.00 0.00 0.00 71 1017.5
20260509193146 58 354 3.5 7.0 0.00 0.00 0.00 71 1017.6
20260509192645 58 14 2.6 6.1 0.00 0.00 0.00 70 1017.5
20260509192145 59 11 3.5 7.8 0.00 0.00 0.00 70 1017.5
20260509191647 59 352 4.3 7.8 0.00 0.00 0.00 69 1017.5
20260509191145 59 18 4.3 7.8 0.00 0.00 0.00 69 1017.4
20260509190646 60 355 4.3 8.7 0.00 0.00 0.00 69 1017.5
20260509190145 60 345 5.2 9.6 0.00 0.00 0.00 68 1017.5
20260509185647 60 10 5.2 9.6 0.00 0.00 0.00 68 1017.4
20260509185147 60 15 4.3 8.7 0.00 0.00 0.00 68 1017.3
20260509184651 60 12 5.2 9.6 0.00 0.00 0.00 67 1017.3
20260509184151 60 23 4.3 9.6 0.00 0.00 0.00 66 1017.4
20260509183712 61 2 4.3 7.8 0.00 0.00 0.00 66 1017.2
20260509182647 61 343 3.5 8.7 0.00 0.00 0.00 65 1017.2
20260509182147 61 339 4.3 10.4 0.00 0.00 0.00 65 1017.2
20260509181647 62 330 5.2 11.3 0.00 0.00 0.00 64 1017.2
20260509181146 62 345 6.1 11.3 0.00 0.00 0.00 63 1017.1
20260509180646 62 356 6.1 12.2 0.00 0.00 0.00 63 1017.1
20260509180214 62 352 6.1 12.2 0.00 0.00 0.00 61 1017.2
20260509175145 62 350 7.0 11.3 0.00 0.00 0.00 61 1017.1
20260509174643 62 339 4.3 11.3 0.00 0.00 0.00 61 1017.1
20260509174212 63 31 4.3 8.7 0.00 0.00 0.00 62 1017.1
20260509173142 63 2 5.2 10.4 0.00 0.00 0.00 61 1017.3
20260509172644 63 325 5.2 12.2 0.00 0.00 0.00 60 1017.3
20260509172142 63 16 6.1 12.2 0.00 0.00 0.00 60 1017.3
20260509171641 63 11 7.0 13.0 0.00 0.00 0.00 59 1017.3
20260509171141 63 356 6.1 13.0 0.00 0.00 0.00 59 1017.2
20260509170642 64 320 4.3 11.3 0.00 0.00 0.00 60 1017.3
20260509170142 64 325 6.1 12.2 0.00 0.00 0.00 58 1017.2
20260509165640 64 7 6.1 12.2 0.00 0.00 0.00 56 1017.3
20260509165139 64 349 5.2 12.2 0.00 0.00 0.00 58 1017.3
20260509164640 64 349 5.2 10.4 0.00 0.00 0.00 57 1017.3
20260509164138 64 27 6.1 11.3 0.00 0.00 0.00 57 1017.2
20260509163637 64 320 5.2 11.3 0.00 0.00 0.00 57 1017.3
20260509163211 65 356 6.1 11.3 0.00 0.00 0.00 59 1017.3
20260509162137 64 21 7.0 11.3 0.00 0.00 0.00 57 1017.2
20260509161637 64 354 6.1 11.3 0.00 0.00 0.00 58 1017.2
20260509161140 64 318 6.1 9.6 0.00 0.00 0.00 56 1017.3
20260509160637 64 340 5.2 9.6 0.00 0.00 0.00 57 1017.2
20260509160138 64 358 4.3 8.7 0.00 0.00 0.00 58 1017.3
20260509155748 64 76 3.5 10.4 0.00 0.00 0.00 58 1017.2
20260509154136 65 62 1.7 6.1 0.00 0.00 0.00 55 1017.2
20260509153702 65 73 2.6 6.1 0.00 0.00 0.00 56 1017.2
20260509152718 65 33 4.3 9.6 0.00 0.00 0.00 57 1017.2
20260509151638 66 0 3.5 8.7 0.00 0.00 0.00 56 1017.3
20260509151140 66 8 3.5 8.7 0.00 0.00 0.00 57 1017.3
20260509150709 66 45 3.5 7.8 0.00 0.00 0.00 57 1017.5
20260509145640 66 5 2.6 8.7 0.00 0.00 0.00 55 1017.5
20260509145146 67 25 1.7 6.1 0.00 0.00 0.00 57 1017.4
20260509144640 66 48 2.6 6.1 0.00 0.00 0.00 54 1017.5
20260509144134 66 50 3.5 6.1 0.00 0.00 0.00 53 1017.5
20260509143711 66 57 4.3 11.3 0.00 0.00 0.00 58 1017.5
20260509142637 65 39 4.3 9.6 0.00 0.00 0.00 53 1017.5
20260509142146 66 48 4.3 9.6 0.00 0.00 0.00 59 1017.6
20260509141634 66 36 3.5 8.7 0.00 0.00 0.00 57 1017.6
20260509141134 65 2 3.5 8.7 0.00 0.00 0.00 60 1017.6
20260509140632 64 351 3.5 7.8 0.00 0.00 0.00 58 1017.8
20260509140134 65 354 4.3 7.8 0.00 0.00 0.00 56 1017.9
20260509135720 66 315 3.5 7.8 0.00 0.00 0.00 52 1017.8
20260509134635 65 27 5.2 9.6 0.00 0.00 0.00 56 1017.9
20260509134134 65 56 3.5 8.7 0.00 0.00 0.00 58 1017.9
20260509133634 65 339 4.3 10.4 0.00 0.00 0.00 58 1017.9
20260509133134 64 308 4.3 10.4 0.00 0.00 0.00 57 1018.0
20260509132709 64 339 4.3 10.4 0.00 0.00 0.00 60 1018.2
20260509131631 64 325 3.5 7.0 0.00 0.00 0.00 56 1018.3
20260509131131 64 13 2.6 7.0 0.00 0.00 0.00 58 1018.3
20260509130659 64 264 3.5 7.8 0.00 0.00 0.00 54 1018.3
20260509125630 66 330 2.6 5.2 0.00 0.00 0.00 56 1018.6
20260509125132 65 4 3.5 7.0 0.00 0.00 0.00 59 1018.6
20260509124631 65 23 3.5 7.8 0.00 0.00 0.00 57 1018.7
20260509124128 66 48 2.6 7.8 0.00 0.00 0.00 60 1018.7
20260509123627 66 82 2.6 7.0 0.00 0.00 0.00 57 1018.7
20260509123128 65 65 2.6 5.2 0.00 0.00 0.00 61 1018.8
20260509122622 65 63 3.5 6.1 0.00 0.00 0.00 60 1018.8
20260509122124 64 335 2.6 6.1 0.00 0.00 0.00 55 1018.8
20260509121624 64 3 2.6 6.1 0.00 0.00 0.00 61 1018.8
20260509121120 64 58 3.5 7.8 0.00 0.00 0.00 60 1018.9
20260509120730 65 354 4.3 8.7 0.00 0.00 0.00 62 1018.9
20260509115122 66 0 3.5 8.7 0.00 0.00 0.00 61 1019.1
20260509114622 65 74 2.6 7.8 0.00 0.00 0.00 59 1019.1
20260509114123 64 85 2.6 7.0 0.00 0.00 0.00 59 1019.2
20260509113619 63 66 3.5 7.0 0.00 0.00 0.00 61 1019.3
20260509113120 63 94 2.6 6.1 0.00 0.00 0.00 63 1019.3
20260509112622 63 35 3.5 7.8 0.00 0.00 0.00 66 1019.3
20260509112123 63 32 3.5 7.8 0.00 0.00 0.00 65 1019.4
20260509111618 64 67 3.5 7.0 0.00 0.00 0.00 64 1019.4
20260509111118 65 83 4.3 8.7 0.00 0.00 0.00 63 1019.4
20260509110619 65 320 3.5 8.7 0.00 0.00 0.00 62 1019.5
20260509110118 65 21 3.5 7.8 0.00 0.00 0.00 66 1019.4
20260509105619 64 295 4.3 7.8 0.00 0.00 0.00 63 1019.5
20260509105118 64 33 4.3 7.8 0.00 0.00 0.00 63 1019.5
20260509104617 64 75 5.2 7.8 0.00 0.00 0.00 67 1019.6
20260509104120 64 25 4.3 7.8 0.00 0.00 0.00 65 1019.6
20260509103649 64 29 4.3 7.8 0.00 0.00 0.00 65 1019.6
20260509102617 64 25 4.3 9.6 0.00 0.00 0.00 70 1019.7
20260509102117 64 28 4.3 9.6 0.00 0.00 0.00 68 1019.7
20260509101618 64 65 3.5 7.8 0.00 0.00 0.00 67 1019.7
20260509101118 63 72 2.6 8.7 0.00 0.00 0.00 69 1019.8
20260509100617 64 39 4.3 9.6 0.00 0.00 0.00 69 1019.8
20260509100115 64 29 3.5 9.6 0.00 0.00 0.00 68 1019.8
20260509095615 64 23 2.6 7.8 0.00 0.00 0.00 70 1019.7
20260509095116 63 102 2.6 5.2 0.00 0.00 0.00 69 1019.7
20260509094643 63 29 3.5 7.8 0.00 0.00 0.00 70 1019.7
20260509093618 62 79 3.5 7.0 0.00 0.00 0.00 69 1019.8
20260509093115 62 120 3.5 8.7 0.00 0.00 0.00 71 1019.9
20260509092613 62 58 3.5 8.7 0.00 0.00 0.00 69 1019.9
20260509092238 62 75 4.3 7.8 0.00 0.00 0.00 70 1019.9
20260509090610 62 86 2.6 7.8 0.00 0.00 0.00 70 1019.9
20260509090111 62 92 3.5 8.7 0.00 0.00 0.00 70 1019.9
20260509085610 62 88 4.3 8.7 0.00 0.00 0.00 72 1019.9
20260509085110 61 68 4.3 7.8 0.00 0.00 0.00 72 1019.9
20260509084611 61 88 4.3 8.7 0.00 0.00 0.00 72 1019.8
20260509084110 61 74 5.2 8.7 0.00 0.00 0.00 72 1019.9
20260509083614 61 65 5.2 7.8 0.00 0.00 0.00 72 1019.9
20260509083110 61 59 3.5 7.8 0.00 0.00 0.00 71 1019.9
20260509082610 61 77 2.6 7.8 0.00 0.00 0.00 72 1019.8
20260509082112 60 56 5.2 9.6 0.00 0.00 0.00 72 1019.9
20260509081610 60 80 7.0 9.6 0.00 0.00 0.00 73 1019.8
20260509081109 60 69 5.2 8.7 0.00 0.00 0.00 74 1019.8
20260509080645 60 71 5.2 8.7 0.00 0.00 0.00 75 1019.9
20260509075608 60 57 5.2 10.4 0.00 0.00 0.00 77 1019.9
20260509075112 59 46 4.3 7.8 0.00 0.00 0.00 78 1019.8
20260509074635 59 349 4.3 7.8 0.00 0.00 0.00 77 1019.8
20260509073610 59 27 3.5 7.8 0.00 0.00 0.00 80 1019.8
20260509073105 59 354 2.6 6.1 0.00 0.00 0.00 81 1019.8
20260509072606 58 19 2.6 6.1 0.00 0.00 0.00 81 1019.9
20260509072106 58 56 3.5 5.2 0.00 0.00 0.00 82 1019.9
20260509071636 57 43 2.6 6.1 0.00 0.00 0.00 83 1019.9
20260509070607 56 11 3.5 6.1 0.00 0.00 0.00 85 1019.9
20260509070105 56 74 2.6 4.3 0.00 0.00 0.00 86 1019.9
20260509065604 55 85 2.6 7.0 0.00 0.00 0.00 86 1019.9
20260509065105 55 50 2.6 7.0 0.00 0.00 0.00 86 1019.9
20260509064606 55 12 2.6 5.2 0.00 0.00 0.00 87 1019.9
20260509064104 54 4 2.6 5.2 0.00 0.00 0.00 87 1019.9
20260509063603 54 23 3.5 5.2 0.00 0.00 0.00 87 1019.9
20260509063107 54 42 3.5 7.0 0.00 0.00 0.00 87 1019.9
20260509062608 54 11 2.6 7.0 0.00 0.00 0.00 88 1019.9
20260509062107 53 10 2.6 5.2 0.00 0.00 0.00 89 1019.9
20260509061607 53 54 2.6 5.2 0.00 0.00 0.00 89 1019.9
20260509061135 53 82 1.7 4.3 0.00 0.00 0.00 90 1019.9
20260509060104 52 25 1.7 4.3 0.00 0.00 0.00 92 1020.0
20260509055604 52 18 1.7 4.3 0.00 0.00 0.00 92 1019.9
20260509055105 51 44 1.7 3.5 0.00 0.00 0.00 93 1019.9
20260509054602 51 65 1.7 3.5 0.00 0.00 0.00 94 1019.8
20260509054104 51 60 1.7 3.5 0.00 0.00 0.00 94 1019.8
20260509053603 50 28 1.7 3.5 0.00 0.00 0.00 94 1019.9
20260509053104 49 30 1.7 3.5 0.00 0.00 0.00 94 1019.8
20260509052634 49 7 2.6 3.5 0.00 0.00 0.00 94 1019.7
20260509051644 48 0 1.7 3.5 0.00 0.00 0.00 94 1019.7
20260509050630 47 45 1.7 4.3 0.00 0.00 0.00 93 1019.7
20260509045606 47 9 0.9 2.6 0.00 0.00 0.00 93 1019.7
20260509045103 47 9 0.9 2.6 0.00 0.00 0.00 93 1019.6
20260509044606 47 9 0.9 2.6 0.00 0.00 0.00 92 1019.6
20260509044059 47 9 1.7 2.6 0.00 0.00 0.00 92 1019.6
20260509043559 47 9 1.7 2.6 0.00 0.00 0.00 92 1019.6
20260509043126 47 9 1.7 3.5 0.00 0.00 0.00 92 1019.5
20260509042059 47 29 1.7 2.6 0.00 0.00 0.00 92 1019.6
20260509041602 47 29 1.7 2.6 0.00 0.00 0.00 92 1019.4
20260509041059 47 29 1.7 2.6 0.00 0.00 0.00 92 1019.5
20260509040556 47 33 0.9 2.6 0.00 0.00 0.00 91 1019.5
20260509040055 47 39 0.9 1.7 0.00 0.00 0.00 91 1019.5
20260509035554 47 39 0.9 2.6 0.00 0.00 0.00 91 1019.4
20260509035056 48 39 0.9 2.6 0.00 0.00 0.00 91 1019.4
20260509034632 48 35 1.7 2.6 0.00 0.00 0.00 91 1019.4
20260509033553 48 37 1.7 2.6 0.00 0.00 0.00 91 1019.4
20260509033051 48 48 1.7 2.6 0.00 0.00 0.00 90 1019.4
20260509032555 48 60 1.7 2.6 0.00 0.00 0.00 90 1019.5
20260509032051 49 60 1.7 3.5 0.00 0.00 0.00 90 1019.5
20260509031550 49 60 1.7 3.5 0.00 0.00 0.00 90 1019.5
20260509031057 49 48 1.7 3.5 0.00 0.00 0.00 91 1019.5
20260509030633 49 59 2.6 3.5 0.00 0.00 0.00 91 1019.6
20260509025558 49 51 3.5 5.2 0.00 0.00 0.00 91 1019.6
20260509025233 49 52 2.6 5.2 0.00 0.00 0.00 91 1019.6
20260509023548 48 68 2.6 3.5 0.00 0.00 0.00 91 1019.6
20260509023105 48 70 1.7 3.5 0.00 0.00 0.00 90 1019.6
20260509022714 48 48 1.7 3.5 0.00 0.00 0.00 90 1019.6
20260509020543 48 60 1.7 2.6 0.00 0.00 0.00 89 1019.7
20260509020039 48 60 1.7 2.6 0.00 0.00 0.00 88 1019.6
20260509015539 48 101 0.9 1.7 0.00 0.00 0.00 88 1019.6
20260509015039 48 102 0.9 1.7 0.00 0.00 0.00 88 1019.6
20260509014534 48 102 0.0 0.9 0.00 0.00 0.00 88 1019.6
20260509014034 49 102 0.0 0.9 0.00 0.00 0.00 87 1019.6
20260509013534 49 101 0.0 0.0 0.00 0.00 0.00 88 1019.6
20260509013031 49 101 0.0 0.9 0.00 0.00 0.00 87 1019.6
20260509012531 49 101 0.0 0.9 0.00 0.00 0.00 87 1019.7
20260509012032 49 102 0.9 1.7 0.00 0.00 0.00 87 1019.6
20260509011529 50 102 0.9 1.7 0.00 0.00 0.00 87 1019.7
20260509011029 50 102 0.9 2.6 0.00 0.00 0.00 87 1019.7
20260509010530 50 89 0.9 2.6 0.00 0.00 0.00 87 1019.7
20260509010027 50 98 1.7 2.6 0.00 0.00 0.00 87 1019.7
20260509005531 50 83 2.6 5.2 0.00 0.00 0.00 87 1019.7
20260509005027 50 87 3.5 5.2 0.00 0.00 0.00 87 1019.7
20260509004527 50 74 2.6 5.2 0.00 0.00 0.00 87 1019.6
20260509004027 50 75 1.7 5.2 0.00 0.00 0.00 87 1019.6
20260509003526 50 83 1.7 3.5 0.00 0.00 0.00 87 1019.6
20260509003033 50 91 1.7 5.2 0.00 0.00 0.00 87 1019.7
20260509002526 50 82 2.6 5.2 0.00 0.00 0.00 86 1019.7
20260509002027 50 79 2.6 5.2 0.00 0.00 0.00 86 1019.7
20260509001528 51 75 2.6 5.2 0.00 0.00 0.00 86 1019.7
20260509001030 51 73 2.6 5.2 0.00 0.00 0.00 86 1019.7
20260509000525 51 73 2.6 6.1 0.00 0.00 0.00 85 1019.8
20260509000029 51 81 2.6 6.1 0.00 0.00 0.00 85 1019.7
20260508235526 51 77 3.5 6.1 0.00 0.00 0.00 85 1019.8
20260508235029 51 82 3.5 6.1 0.00 0.00 0.00 84 1019.7
20260508234526 51 66 3.5 6.1 0.00 0.00 0.00 85 1019.8
20260508234028 51 72 4.3 6.1 0.00 0.00 0.00 85 1019.7
20260508233526 51 71 4.3 6.1 0.00 0.00 0.00 85 1019.8
20260508233025 51 54 4.3 6.1 0.00 0.00 0.00 86 1019.7
20260508232525 51 58 3.5 6.1 0.00 0.00 0.00 86 1019.8
20260508232025 50 56 2.6 5.2 0.00 0.00 0.00 87 1019.7
20260508231524 50 72 1.7 5.2 0.00 0.00 0.00 86 1019.7
20260508231116 50 63 1.7 3.5 0.00 0.00 0.00 85 1019.6
20260508225519 51 0 0.9 1.7 0.00 0.00 0.00 84 1019.7
20260508225017 51 0 0.9 1.7 0.00 0.00 0.00 84 1019.6
20260508224517 51 0 0.9 1.7 0.00 0.00 0.00 82 1019.7
20260508224016 51 0 0.9 1.7 0.00 0.00 0.00 82 1019.6
20260508223514 51 0 0.9 2.6 0.00 0.00 0.00 82 1019.7
20260508223013 51 0 0.9 2.6 0.00 0.00 0.00 81 1019.7
20260508222512 52 0 0.9 2.6 0.00 0.00 0.00 80 1019.8
20260508222014 52 0 0.0 1.7 0.00 0.00 0.00 80 1019.8
20260508221513 52 0 0.9 1.7 0.00 0.00 0.00 80 1019.7
20260508221056 52 0 0.9 2.6 0.00 0.00 0.00 80 1019.8
20260508215510 53 354 1.7 3.5 0.00 0.00 0.00 79 1019.7
20260508215009 53 15 0.9 3.5 0.00 0.00 0.00 79 1019.7
20260508214507 53 16 0.9 3.5 0.00 0.00 0.00 78 1019.7
20260508214034 54 35 1.7 3.5 0.00 0.00 0.00 77 1019.8
20260508213008 54 29 0.9 1.7 0.00 0.00 0.00 76 1019.8
20260508212528 54 29 0.9 1.7 0.00 0.00 0.00 76 1019.9
20260508211505 55 10 0.9 2.6 0.00 0.00 0.00 75 1019.9
20260508211031 55 2 0.9 3.5 0.00 0.00 0.00 75 1019.8
20260508210007 55 13 0.9 3.5 0.00 0.00 0.00 74 1019.7
20260508205504 55 16 1.7 3.5 0.00 0.00 0.00 74 1019.6
20260508205005 56 2 1.7 3.5 0.00 0.00 0.00 74 1019.6
20260508204503 56 10 1.7 3.5 0.00 0.00 0.00 74 1019.7